Location: Drocourt
(49.0571°N, 1.7669°E)
Time: 12:52:30
(UTC+00:00)

DPAF - Visible Passes

Search period start: 23 February 2024 00:00
Search period end: 04 March 2024 00:00
Orbit: 762 x 844 km, 108.0° (Epoch: 22 February)

Date Brightness Start Highest point End Pass type
(mag) Time Alt. Az. Time Alt. Az. Time Alt. Az.
23 Feb 9.3 20:31:39 13° NNE 20:31:39 13° NNE 20:32:43 10° N visible
23 Feb 10.0 22:12:38 10° NNW 22:12:38 10° NNW 22:12:41 10° NNW visible
24 Feb 9.4 20:05:18 10° NNE 20:05:18 10° NNE 20:05:49 10° NNE visible
24 Feb 9.7 21:46:16 13° NNW 21:46:16 13° NNW 21:46:48 10° NNW visible
25 Feb 9.5 21:19:55 14° N 21:19:55 14° N 21:20:47 10° N visible
26 Feb 9.4 20:53:33 13° N 20:53:33 13° N 20:54:36 10° N visible
27 Feb 9.4 20:27:10 11° NNE 20:27:10 11° NNE 20:28:03 10° N visible
27 Feb 9.8 22:08:09 12° NNW 22:08:09 12° NNW 22:08:34 10° NNW visible
28 Feb 9.6 21:41:46 14° N 21:41:46 14° N 21:42:35 10° NNW visible
29 Feb 9.4 21:15:23 14° N 21:15:23 14° N 21:16:28 10° N visible
01 Mar 9.4 20:49:01 12° NNE 20:49:01 12° NNE 20:50:04 10° N visible
01 Mar 9.9 22:29:59 12° NNW 22:29:59 12° NNW 22:30:18 10° NNW visible
02 Mar 9.7 22:03:36 14° N 22:03:36 14° N 22:04:21 10° NNW visible
03 Mar 9.5 21:37:12 14° N 21:37:12 14° N 21:38:17 10° N visible
